Location: Newark
(36.2667°N, 50.0000°E)
Time: 22:25:05
(UTC+00:00)

Hubble Space Telescope - Pass Details

Date: 04 October 2020
Orbit: 536 x 540 km, 28.5° (Epoch: 26 October)

Event Time Altitude Azimuth Distance (km) Brightness Sun altitude
Exits shadow 01:34:11 13° 221° (SW) 1,588 2.8 -13.6°
Maximum altitude 01:35:37 15° 198° (SSW) 1,476 2.8 -13.3°
Drops below altitude 10° 01:38:01 10° 162° (SSE) 1,774 3.6 -12.9°
Sets 01:41:03 0° 138° (SE) 2,662 4.9 -12.2°
